ATLAS 5 CENTAUR DEB, 46660

Orbit data source: Space-Track

ATLAS 5 CENTAUR DEB, 46660 is space debris in HEO originally from a launch on Wed, 17 Oct 2018 UTC launched from the Air Force Eastern Test Range (AFETR). Debris objects in space refer to the collection of defunct objects orbiting the Earth. Examples of debris include non-operational satellites, rocket bodies, and fragments generated from explosions, collisions, or faulty payload assembly.

Loading next visibility...
Identifier
46660, 2018-079CN
Orbit
HEO
Country
Flag of USUS
Related business
Flag of USUnited Launch Alliance/Lockheed Martin (US)
Manufacturer
ULA Decatur
Mission
Spacecraft
Bus & Motor
Unknown
Mass
Unknown
Launch date (UTC)
2018-10-17 (8 years ago)
Launch vehicle
Unknown
Launch site
Air Force Eastern Test Range (AFETR)
Object type
Payload
Rocket body
Debris
Shape & HBR
Unknown shape, 1.1 m
Radar Cross Section
RCS unknown

Expand to show TLE details & history
Last TLE update: 19 hours ago

TLE from 19 hours ago
0 ATLAS 5 CENTAUR DEB
1 46660U 18079CN  26249.07513994 -.00000202  00000-0  00000-0 0  9993
2 46660  13.3608  34.2741 4594008 316.2645  15.2599  1.81071758 13433
Epoch: 2026-09-06T01:48Z
TLE epoch observation values (Epoch: 2026-09-06T01:48:12.090Z)
Latitude
-0.0001°
Longitude
22.09406°
Altitude
10,443.886 km
Speed
5.777 km/s
True Right ascension
02h 17m 16s
True Declination
0° 00' 00"
Sunlit
Object was in daylight at epoch
Visualization orbit readout
Latitude
Unknown
Longitude
Unknown
Altitude
Unknown
Speed
Unknown
Apparent Right ascension
Unknown
Apparent Declination
Unknown
Sunlit
N/A
Visualization observer readout
Local Sidereal Time
13:18:49
Azimuth
Unknown
Elevation
Unknown
Doppler factor
Unknown
Orbital elements
Apogee altitude
35,121.147 km
Perigee altitude
8,994.254 km
Semi-major axis
28,435.837 km
Eccentricity
0.4594
Inclination
13.3608°
RAAN
34.2741°
Arg. of periapsis
316.2645°
True anomaly
43.58727°
Mean anomaly
15.2599°
Eccentric anomaly
27.35465°
Mean motion
0.45263 °/min
Orbital period
795.35 mins
BSTAR
0
Loading maneuver chart data...
Computing Atmospheric mass density...

Documentation

Showing up to 5 results
|